BREEZE-M DEB (TANK) - Orbit

View from above orbital plane
View from above orbital plane
View from above satellite
View from above satellite

Ground track
Ground track

The orbit data is extracted from the following two-line orbital elements,

1 29649U 06056B   13145.54545108  .00002061  00000-0  49708-3 0  6899
2 29649 049.4876 229.0791 5425986 323.6143 036.9164 04.90383455114175
Epoch (UTC): 25 May 2013 13:05:26
Eccentricity: 0.5425986
inclination: 49.4876°
perigee height: 316 km
apogee height: 16197 km
right ascension of ascending node: 229.0791°
argument of perigee: 323.6143°
revolutions per day: 4.90383455
mean anomaly at epoch: 36.9164°
orbit number at epoch: 11417

The dashed part of the orbit path shows where the satellite is in the earth's shadow,  

Developed and maintained by Chris Peat, Heavens-Above GmbH. Please read the updated FAQ before sending e-mail. Imprint. DLR